Weather Roundup
Issued by NWS Springfield, MO

Home | Current Version | Previous Version | Text Only | Print | Product List | Glossary On
Versions: 1 2 3 4 5 6 7 8 9 10 11 12 13 14 15 16 17 18 19 20 21 22 23 24 25 26 27 28 29 30 31 32 33 34 35 36 37 38 39 40 41 42 43 44 45 46 47 48 49 50
000
NZUS99 KSGF 192307
HRRSGF

HOURLY WEATHER
NATIONAL WEATHER SERVICE SPRINGFIELD MO
500 PM CST FRI DEC 19 2014

......SGF CWA......

CITY           SKY/WX    TMP DP  RH WIND       PRES   REMARKS
SPRINGFIELD    CLOUDY    39  36  89 SE7       30.18R WCI  34
JOPLIN         CLOUDY    39  38  96 CALM      30.20R FOG
WEST PLAINS    CLOUDY    35  33  92 NE3       30.20S
ROLLA          CLOUDY    35  31  85 E5        30.20R WCI  31
OSAGE BEACH    CLOUDY    37  34  87 E3        30.21S
BRANSON        FOG       37  36  93 SE3       30.19S VSB 1

......SURROUNDING SGF CWA......

CITY           SKY/WX    TMP DP  RH WIND       PRES   REMARKS
CHANUTE        CLOUDY    35  34  96 N3        30.21R FOG
PARSONS        CLOUDY    37  35  92 N3        30.21S FOG
COFFEYVILLE    CLOUDY    38  35  89 NW6       30.21S FOG     WCI  33
EMPORIA        CLOUDY    32  29  88 CALM      30.18F
GROVE OK       CLOUDY    41  41 100 CALM      30.21S FOG
ROGERS AR      LGT RAIN  40  39  97 CALM      30.18S FOG
SILOAM SPRINGS CLOUDY    41  36  81 CALM      30.19S
HARRISON AR    FOG       37  37 100 E3        30.19S VSB 1
NEAR YELLVILLE CLOUDY    37  32  81 E3        30.21S

......KANSAS AND MISSOURI......

CITY           SKY/WX    TMP DP  RH WIND       PRES   REMARKS
KANSAS CTY INT CLOUDY    32  30  92 CALM      30.20S FOG
DOWNTOWN KC    CLOUDY    35  30  82 CALM      30.21S
COLUMBIA       CLOUDY    36  32  85 E6        30.23R WCI  31
SEDALIA        CLOUDY    37  34  89 SE5       30.22S WCI  33
ST JOSEPH      CLOUDY    32  29  88 SW8       30.22S WCI  25
ST LOUIS       CLOUDY    38  28  67 E6        30.27S WCI  33
SPIRIT OF STL  CLOUDY    36  29  75 CALM      30.26S HAZE
KIRKSVILLE     CLOUDY    32  30  92 E7        30.23R FOG     WCI  26
WICHITA        CLOUDY    37  32  82 S6        30.17F WCI  32
TOPEKA         CLOUDY    33  27  78 W3        30.21S
OLATHE         CLOUDY    33  31  92 CALM      30.19S

......TENNESSEE......

CITY           SKY/WX    TMP DP  RH WIND       PRES   REMARKS
MEMPHIS        LGT RAIN  44  35  70 E8        30.19F
NASHVILLE      MOCLDY    39  29  67 N8        30.24S WCI  33

......ARKANSAS.......

CITY           SKY/WX    TMP DP  RH WIND       PRES   REMARKS
FAYETTEVILLE   CLOUDY    41  41 100 CALM      30.18R FOG
FT SMITH       CLOUDY    43  39  86 E6        30.21R FOG
LITTLE ROCK    CLOUDY    43  36  76 N7        30.22R

......OKLAHOMA.......

CITY           SKY/WX    TMP DP  RH WIND       PRES   REMARKS
TULSA          CLOUDY    41  36  82 N5        30.22S
PONCA CITY     CLOUDY    41  33  73 E3        30.19S
MCALESTER      FOG       42  41  96 N7        30.21R VSB 1/4
OKLAHOMA CITY  CLOUDY    42  36  79 NW3       30.19R

......IOWA............

CITY           SKY/WX    TMP DP  RH WIND       PRES   REMARKS
DES MOINES     CLOUDY    33  28  81 SE6       30.21F WCI  28
QUAD CITIES    MOCLDY    29  20  69 E7        30.27F WCI  22

......ILLINOIS........

CITY           SKY/WX    TMP DP  RH WIND       PRES   REMARKS
QUINCY         CLOUDY    33  27  78 E3        30.26S
CHICAGO        CLOUDY    31  22  69 S5        30.30S WCI  26



USA.gov is the U.S. government's official web portal to all federal, state and local government web resources and services.